Location: Unspecified
(0.0000°N, 0.0000°E)
Time: 01:22:34
(UTC+00:00)

Envisat - Pass Details

Date: 17 January 2021
Orbit: 764 x 766 km, 98.1° (Epoch: 16 January)

Event Time Altitude Azimuth Distance (km) Brightness Sun altitude
Rises 04:44:28 0° 31° (NNE) 3,215 6.3 -20.0°
Reaches altitude 10° 04:47:01 10° 42° (NE) 2,292 5.7 -19.4°
Maximum altitude 04:51:25 30° 102° (ESE) 1,336 5.0 -18.4°
Drops below altitude 10° 04:55:49 10° 163° (SSE) 2,301 6.0 -17.3°
Sets 04:58:21 0° 173° (S) 3,230 6.6 -16.7°
